Погода в Ноорде

Аруба     12°33′59″N   70°01′55″W
темп.,
°C
ветер,
м/с
пор.,
м/с
влажн.,
%
обл.,
%
осадки,
мм/ч
давл.,
гПа
погр.,
м
26 января, ср
ср2623:00+26в910817 0.0 1013958
02:00+26в9107834 0.0 10121045
05:00+26в9107394 0.0 10121171
08:00+26в9107143 0.1 10141306
11:00+26в897340 0.0 10151069
14:00+26в89745 0.0 10131012
17:00+26в810781 0.0 10111006
20:00+26в910805 0.0 1012990
27 января, чт
чт2723:00+26в9108288 0.3 1013955
02:00+26в9118133 0.4 1012872
05:00+26в10107976 0.5 1012977
08:00+26в897736 0.9 1014994
11:00+26всв89758 0.1 1015998
14:00+26всв89765 0.1 1013954
17:00+26всв89780 0.0 1012940
20:00+26всв910804 0.0 1013912
28 января, пт
пт2823:00+26всв99785 0.0 1013905
02:00+26всв99751 0.0 1012857
05:00+26всв887311 0.0 1012998
08:00+26всв777275 0.0 10131117
11:00+26в777111 0.0 10141059
14:00+26в66715 0.0 1012917
17:00+26всв77715 0.0 1011733
20:00+26всв78715 0.0 1012773
29 января, сб
сб2923:00+26всв88705 0.0 1013815
02:00+25в67695 0.0 1012897
05:00+25в77670 0.0 1011870
08:00+25в77660 0.0 1013927
11:00+25вюв67755 0.0 1014784
14:00+26вюв56690 0.0 1012933
17:00+26всв56710 0.0 1011810
20:00+26св77710 0.0 1012673
30 января, вс
вс3023:00+26всв89702 0.0 1013752
02:00+26всв78702 0.0 1012945
05:00+25в78754 0.0 1012934
08:00+25вюв56730 0.0 1014700
11:00+26вюв57765 0.0 1015757
14:00+26в577916 0.0 1013786
17:00+26всв78784 0.0 1011807
20:00+26всв78760 0.0 1013746